ATLAS 5 CENTAUR DEB, 46485

Orbit data source: Space-Track

ATLAS 5 CENTAUR DEB, 46485 is space debris in HEO originally from a launch on Wed, 17 Oct 2018 UTC launched from the Air Force Eastern Test Range (AFETR). Debris objects in space refer to the collection of defunct objects orbiting the Earth. Examples of debris include non-operational satellites, rocket bodies, and fragments generated from explosions, collisions, or faulty payload assembly.

Loading next visibility...
Identifier
46485, 2018-079BY
Orbit
HEO
Country
Flag of USUS
Related business
Flag of USUnited Launch Alliance/Lockheed Martin (US)
Manufacturer
ULA Decatur
Mission
Spacecraft
Bus & Motor
Unknown
Mass
Unknown
Launch date (UTC)
2018-10-17 (7 years ago)
Launch vehicle
Unknown
Launch site
Air Force Eastern Test Range (AFETR)
Object type
Payload
Rocket body
Debris
Shape & HBR
Unknown
Radar Cross Section
RCS unknown

Expand to show TLE details & history
Last TLE update: 2 weeks ago

TLE from 2 weeks ago
0 ATLAS 5 CENTAUR DEB
1 46485U 18079BY  25244.03181272 -.00000120  00000-0  00000-0 0  9997
2 46485  13.3504  12.8348 4381214   7.4891 357.2776  2.01459322 28020
Epoch: 2025-09-01T00:45Z
TLE epoch observation values (Epoch: 2025-09-01T00:45:48.619Z)
Latitude
-0.00001°
Longitude
20.95001°
Altitude
8,538.104 km
Speed
6.196 km/s
True Right ascension
00h 51m 22s
True Declination
0° 00' 00"
Sunlit
Object was in daylight at epoch
Visualization orbit readout
Latitude
Unknown
Longitude
Unknown
Altitude
Unknown
Speed
Unknown
Apparent Right ascension
Unknown
Apparent Declination
Unknown
Sunlit
N/A
Visualization observer readout
Local Sidereal Time
12:50:56
Azimuth
Unknown
Elevation
Unknown
Doppler factor
Unknown
Orbital elements
Apogee altitude
31,708.617 km
Perigee altitude
8,502.479 km
Semi-major axis
26,483.685 km
Eccentricity
0.43812
Inclination
13.3504°
RAAN
12.8348°
Arg. of periapsis
7.4891°
True anomaly
352.26285°
Mean anomaly
357.2776°
Eccentric anomaly
355.15931°
Mean motion
0.50359 °/min
Orbital period
714.87 mins
BSTAR
0
Loading maneuver chart data...
Computing Atmospheric mass density...

Documentation

Showing up to 5 results
|